• în România
  • Lista ţărilor
  • Pe 7 zile
  • Temperatura apei
  • Hartă satelitară
  • Meteo pe hartă
  • Widget-uri
  • user-avatar
    Intrare

    Meteo pe oră la Korablino

    Astăzi, 25 Septembrie, Marţi

    Timp Temperatura Precipitaţii Vânt Presiune Umiditate
    00:00 +10°C° 0.3 mm 9 m/s 736 mmHg 87%
    01:00 +10°C° 0.1 mm 8 m/s 736 mmHg 86%
    02:00 +9°C° 0.1 mm 7 m/s 735 mmHg 85%
    03:00 +9°C° 0.1 mm 7 m/s 735 mmHg 84%
    04:00 +8°C° 0 mm 7 m/s 736 mmHg 84%
    05:00 +8°C° 0 mm 7 m/s 736 mmHg 83%
    06:00 +6°C° 0 mm 7 m/s 736 mmHg 83%
    07:00 +8°C° 0 mm 7 m/s 736 mmHg 82%
    08:00 +8°C° 0 mm 7 m/s 737 mmHg 81%
    09:00 +8°C° 0 mm 7 m/s 737 mmHg 79%
    10:00 +8°C° 0 mm 7 m/s 738 mmHg 77%
    11:00 +9°C° 0 mm 7 m/s 738 mmHg 74%
    12:00 +9°C° 0 mm 7 m/s 739 mmHg 72%
    13:00 +9°C° 0.1 mm 7 m/s 739 mmHg 71%
    14:00 +9°C° 0.1 mm 7 m/s 740 mmHg 71%
    15:00 +9°C° 0.1 mm 7 m/s 740 mmHg 71%
    16:00 +8°C° 0 mm 7 m/s 741 mmHg 72%
    17:00 +8°C° 0 mm 7 m/s 742 mmHg 73%
    18:00 +7°C° 0 mm 6 m/s 742 mmHg 73%
    19:00 +7°C° 0 mm 6 m/s 743 mmHg 74%
    20:00 +7°C° 0 mm 6 m/s 743 mmHg 75%
    21:00 +5°C° 0 mm 6 m/s 744 mmHg 76%
    22:00 +5°C° 0 mm 6 m/s 744 mmHg 76%
    23:00 +6°C° 0 mm 5 m/s 745 mmHg 76%

    Mâine, 26 Septembrie, Miercuri

    Timp Temperatura Precipitaţii Vânt Presiune Umiditate
    00:00 +6°C° 0 mm 5 m/s 745 mmHg 76%
    01:00 +5°C° 0 mm 5 m/s 746 mmHg 78%
    02:00 +5°C° 0 mm 5 m/s 746 mmHg 80%
    03:00 +5°C° 0 mm 5 m/s 747 mmHg 81%
    04:00 +3°C° 0 mm 5 m/s 748 mmHg 83%
    05:00 +3°C° 0 mm 5 m/s 748 mmHg 85%
    06:00 +3°C° 0 mm 4 m/s 749 mmHg 86%
    07:00 +3°C° 0 mm 5 m/s 749 mmHg 83%
    08:00 +3°C° 0 mm 5 m/s 750 mmHg 80%
    09:00 +4°C° 0 mm 6 m/s 750 mmHg 76%
    10:00 +6°C° 0 mm 5 m/s 751 mmHg 73%
    11:00 +6°C° 0 mm 5 m/s 751 mmHg 70%
    12:00 +7°C° 0 mm 5 m/s 752 mmHg 66%
    13:00 +7°C° 0 mm 5 m/s 752 mmHg 63%
    14:00 +8°C° 0 mm 4 m/s 752 mmHg 59%
    15:00 +8°C° 0 mm 4 m/s 752 mmHg 56%
    16:00 +8°C° 0 mm 4 m/s 752 mmHg 59%
    17:00 +8°C° 0 mm 3 m/s 752 mmHg 62%
    18:00 +7°C° 0 mm 3 m/s 752 mmHg 64%
    19:00 +7°C° 0 mm 3 m/s 752 mmHg 66%
    20:00 +5°C° 0 mm 3 m/s 752 mmHg 68%
    21:00 +4°C° 0 mm 3 m/s 752 mmHg 69%
    22:00 +4°C° 0 mm 4 m/s 751 mmHg 69%
    23:00 +4°C° 0 mm 4 m/s 751 mmHg 70%

    Poimâine, 27 Septembrie, Joi

    Timp Temperatura Precipitaţii Vânt Presiune Umiditate
    00:00 +3°C° 0 mm 5 m/s 750 mmHg 70%
    01:00 +4°C° 0 mm 6 m/s 750 mmHg 69%
    02:00 +4°C° 0 mm 6 m/s 749 mmHg 69%
    03:00 +4°C° 0 mm 7 m/s 748 mmHg 68%
    04:00 +4°C° 0.2 mm 8 m/s 747 mmHg 68%
    05:00 +4°C° 0.2 mm 8 m/s 746 mmHg 67%
    06:00 +5°C° 0.2 mm 9 m/s 745 mmHg 67%
    07:00 +3°C° 0.8 mm 10 m/s 745 mmHg 71%
    08:00 +3°C° 0.8 mm 10 m/s 744 mmHg 75%
    09:00 +3°C° 0.8 mm 11 m/s 743 mmHg 79%
    10:00 +5°C° 0.4 mm 10 m/s 743 mmHg 80%
    11:00 +5°C° 0.4 mm 10 m/s 743 mmHg 82%
    12:00 +6°C° 0.4 mm 9 m/s 742 mmHg 84%
    13:00 +6°C° 0.3 mm 9 m/s 742 mmHg 84%
    14:00 +7°C° 0.3 mm 9 m/s 742 mmHg 85%
    15:00 +7°C° 0.3 mm 8 m/s 742 mmHg 85%
    16:00 +7°C° 0.3 mm 8 m/s 742 mmHg 86%
    17:00 +8°C° 0.3 mm 7 m/s 742 mmHg 86%
    18:00 +9°C° 0.3 mm 7 m/s 742 mmHg 87%
    19:00 +8°C° 0.1 mm 6 m/s 743 mmHg 87%
    20:00 +8°C° 0.1 mm 5 m/s 743 mmHg 86%
    21:00 +7°C° 0.1 mm 5 m/s 744 mmHg 86%
    22:00 +7°C° 0 mm 4 m/s 744 mmHg 86%
    23:00 +6°C° 0 mm 4 m/s 745 mmHg 87%

    28 Septembrie, Vineri

    Timp Temperatura Precipitaţii Vânt Presiune Umiditate
    00:00 +6°C° 0 mm 4 m/s 745 mmHg 87%
    01:00 +5°C° 0 mm 4 m/s 745 mmHg 87%
    02:00 +5°C° 0 mm 4 m/s 746 mmHg 88%
    03:00 +5°C° 0 mm 4 m/s 746 mmHg 88%
    04:00 +4°C° 0 mm 4 m/s 746 mmHg 89%
    05:00 +4°C° 0 mm 4 m/s 746 mmHg 90%
    06:00 +4°C° 0 mm 4 m/s 746 mmHg 91%
    07:00 +5°C° 0 mm 4 m/s 746 mmHg 85%
    08:00 +7°C° 0 mm 5 m/s 746 mmHg 79%
    09:00 +8°C° 0 mm 6 m/s 745 mmHg 73%
    10:00 +10°C° 0 mm 7 m/s 745 mmHg 71%
    11:00 +11°C° 0 mm 8 m/s 744 mmHg 69%
    12:00 +13°C° 0 mm 9 m/s 744 mmHg 67%
    13:00 +13°C° 0 mm 9 m/s 743 mmHg 71%
    14:00 +13°C° 0 mm 8 m/s 743 mmHg 75%
    15:00 +13°C° 0 mm 8 m/s 742 mmHg 79%
    16:00 +13°C° 0 mm 8 m/s 742 mmHg 79%
    17:00 +13°C° 0 mm 8 m/s 741 mmHg 80%
    18:00 +12°C° 0 mm 9 m/s 741 mmHg 80%
    19:00 +13°C° 0.3 mm 8 m/s 741 mmHg 82%
    20:00 +13°C° 0.3 mm 8 m/s 740 mmHg 83%
    21:00 +13°C° 0.3 mm 8 m/s 740 mmHg 84%
    22:00 +12°C° 0.4 mm 8 m/s 741 mmHg 84%
    23:00 +12°C° 0.4 mm 7 m/s 741 mmHg 83%

    29 Septembrie, Sâmbătă

    Timp Temperatura Precipitaţii Vânt Presiune Umiditate
    00:00 +11°C° 0.4 mm 6 m/s 742 mmHg 82%
    01:00 +9°C° 0 mm 6 m/s 742 mmHg 84%
    02:00 +8°C° 0 mm 5 m/s 743 mmHg 86%
    03:00 +6°C° 0 mm 4 m/s 744 mmHg 88%
    04:00 +5°C° 0 mm 4 m/s 745 mmHg 88%
    05:00 +4°C° 0 mm 3 m/s 746 mmHg 89%
    06:00 +4°C° 0 mm 3 m/s 746 mmHg 90%
    07:00 +4°C° 0 mm 3 m/s 747 mmHg 83%
    08:00 +4°C° 0 mm 3 m/s 747 mmHg 77%
    09:00 +5°C° 0 mm 3 m/s 748 mmHg 71%
    10:00 +7°C° 0 mm 3 m/s 748 mmHg 63%
    11:00 +8°C° 0 mm 3 m/s 749 mmHg 55%
    12:00 +9°C° 0 mm 2 m/s 749 mmHg 47%
    13:00 +9°C° 0 mm 2 m/s 749 mmHg 45%
    14:00 +10°C° 0 mm 2 m/s 749 mmHg 43%
    15:00 +10°C° 0 mm 2 m/s 749 mmHg 41%
    16:00 +9°C° 0 mm 2 m/s 749 mmHg 45%
    17:00 +9°C° 0 mm 2 m/s 749 mmHg 48%
    18:00 +8°C° 0 mm 2 m/s 750 mmHg 52%
    19:00 +7°C° 0 mm 2 m/s 750 mmHg 54%
    20:00 +7°C° 0 mm 2 m/s 751 mmHg 56%
    21:00 +6°C° 0 mm 2 m/s 751 mmHg 58%
    22:00 +6°C° 0 mm 2 m/s 751 mmHg 60%
    23:00 +5°C° 0 mm 2 m/s 751 mmHg 63%

    30 Septembrie, Duminică

    Timp Temperatura Precipitaţii Vânt Presiune Umiditate
    00:00 +5°C° 0 mm 2 m/s 752 mmHg 65%
    01:00 +4°C° 0 mm 2 m/s 752 mmHg 67%
    02:00 +4°C° 0 mm 2 m/s 753 mmHg 69%
    03:00 +4°C° 0 mm 2 m/s 753 mmHg 70%
    04:00 +4°C° 0 mm 2 m/s 753 mmHg 72%
    05:00 +3°C° 0 mm 2 m/s 754 mmHg 74%
    06:00 +3°C° 0 mm 2 m/s 754 mmHg 75%
    07:00 +4°C° 0 mm 2 m/s 754 mmHg 73%
    08:00 +5°C° 0 mm 2 m/s 755 mmHg 70%
    09:00 +6°C° 0 mm 2 m/s 755 mmHg 68%
    10:00 +7°C° 0 mm 2 m/s 755 mmHg 64%
    11:00 +8°C° 0 mm 2 m/s 755 mmHg 60%
    12:00 +9°C° 0 mm 2 m/s 756 mmHg 57%
    13:00 +10°C° 0 mm 1 m/s 755 mmHg 55%
    14:00 +11°C° 0 mm 1 m/s 755 mmHg 53%
    15:00 +11°C° 0 mm 1 m/s 755 mmHg 51%
    16:00 +10°C° 0 mm 1 m/s 755 mmHg 53%
    17:00 +9°C° 0 mm 0 m/s 755 mmHg 56%
    18:00 +8°C° 0 mm 0 m/s 755 mmHg 58%
    19:00 +8°C° 0 mm 0 m/s 755 mmHg 59%
    20:00 +8°C° 0 mm 1 m/s 755 mmHg 59%
    21:00 +8°C° 0 mm 1 m/s 755 mmHg 59%
    22:00 +7°C° 0 mm 1 m/s 755 mmHg 61%
    23:00 +7°C° 0 mm 1 m/s 755 mmHg 63%
    Arată mai mult